Location: Eastlake (historical)
(39.0077°N, 122.6678°W)
Time: 06:19:02
(UTC+00:00)

OAO 2 Rocket - Pass Details

Date: 25 November 2020
Orbit: 676 x 745 km, 35.0° (Epoch: 27 January)

Event Time Altitude Azimuth Distance (km) Brightness Sun altitude
Exits shadow 13:11:47 26° 216° (SW) 1,356 4.5 -21.7°
Maximum altitude 13:14:00 40° 165° (SSE) 1,022 4.3 -21.3°
Drops below altitude 10° 13:18:48 10° 96° (E) 2,189 7.1 -20.3°
Sets 13:21:21 0° 89° (E) 3,123 8.1 -19.9°
